This is the latest recevied weather packets stored in our database for station/object W4KAB. If no packets are shown the sender has not sent any weather packets the latest 10 day(s).
| Time | Temp. | Humidity | Pressure | Rain* | Wind** | Luminosity | Snow |
|---|---|---|---|---|---|---|---|
| 1777921309 | 25.56° C | 38% | 1016 hPa | 0 mm | - | 684 W/m² | - |
| 1777921005 | 26.11° C | 41% | 1016 hPa | 0 mm | - | 570 W/m² | - |
| 1777920702 | 26.11° C | 40% | 1016.3 hPa | 0 mm | - | 697 W/m² | - |
| 1777920398 | 25.56° C | 39% | 1016 hPa | 0 mm | - | 739 W/m² | - |
| 1777920093 | 26.11° C | 41% | 1016 hPa | 0 mm | - | 724 W/m² | - |
| 1777919791 | 25.56° C | 36% | 1016.1 hPa | 0 mm | - | 736 W/m² | - |
| 1777919488 | 25.56° C | 37% | 1016.3 hPa | 0 mm | - | 766 W/m² | - |
| 1777919186 | 25° C | 39% | 1016.7 hPa | 0 mm | - | 744 W/m² | - |
| 1777918883 | 25° C | 39% | 1016.3 hPa | 0 mm | - | 730 W/m² | - |
| 1777918580 | 25° C | 39% | 1016.6 hPa | 0 mm | - | 722 W/m² | - |
| 1777918278 | 25.56° C | 38% | 1016.7 hPa | 0 mm | - | 716 W/m² | - |
| 1777917977 | 25° C | 40% | 1016.8 hPa | 0 mm | - | 716 W/m² | - |
| 1777917675 | 24.44° C | 40% | 1016.9 hPa | 0 mm | - | 674 W/m² | - |
| 1777917372 | 23.89° C | 41% | 1016.8 hPa | 0 mm | - | 680 W/m² | - |
| 1777917069 | 24.44° C | 40% | 1016.8 hPa | 0 mm | - | 714 W/m² | - |
| 1777916767 | 24.44° C | 41% | 1016.9 hPa | 0 mm | - | 692 W/m² | - |
| 1777916463 | 23.33° C | 41% | 1017 hPa | 0 mm | - | 666 W/m² | - |
| 1777916160 | 23.89° C | 42% | 1017.2 hPa | 0 mm | - | 639 W/m² | - |
| 1777915858 | 23.89° C | 42% | 1017.1 hPa | 0 mm | - | 738 W/m² | - |
| 1777915554 | 24.44° C | 42% | 1017.2 hPa | 0 mm | - | 727 W/m² | - |
| 1777915250 | 24.44° C | 42% | 1016.9 hPa | 0 mm | - | 728 W/m² | - |
| 1777914947 | 23.89° C | 41% | 1016.9 hPa | 0 mm | - | 714 W/m² | - |
| 1777914644 | 23.89° C | 41% | 1016.9 hPa | 0 mm | - | 695 W/m² | - |
| 1777914340 | 23.33° C | 43% | 1017.3 hPa | 0 mm | - | 695 W/m² | - |
| 1777914038 | 23.33° C | 41% | 1017.1 hPa | 0 mm | - | 711 W/m² | - |
* Rain latest hour (hover to see other rain measurements)
** Current wind speed in m/s (hover to see current wind gust speed)